TimeMST,TemperatureF,Dew PointF,Humidity,Sea Level PressureIn,VisibilityMPH,Wind Direction,Wind SpeedMPH,Gust SpeedMPH,PrecipitationIn,Events,Conditions,WindDirDegrees,DateUTC
12:05 AM,-20.2,-9999,N/A,29.92,10.0,Calm,Calm,-,N/A,,Overcast,0,2013-01-13 07:05:00
12:25 AM,-20.2,-9999,N/A,29.92,10.0,Calm,Calm,-,N/A,,Overcast,0,2013-01-13 07:25:00
12:45 AM,-22.0,-9999,N/A,29.93,10.0,Calm,Calm,-,N/A,,Overcast,0,2013-01-13 07:45:00
1:05 AM,-22.0,-9999,N/A,29.93,10.0,Calm,Calm,-,N/A,,Scattered Clouds,0,2013-01-13 08:05:00
1:25 AM,-22.0,-9999,N/A,29.93,10.0,Calm,Calm,-,N/A,,Partly Cloudy,0,2013-01-13 08:25:00
1:45 AM,-23.8,-9999,N/A,29.93,10.0,Calm,Calm,-,N/A,,Clear,0,2013-01-13 08:45:00
2:05 AM,-27.4,-9999,N/A,29.93,10.0,Calm,Calm,-,N/A,,Clear,0,2013-01-13 09:05:00
2:25 AM,-27.4,-9999,N/A,29.94,10.0,Calm,Calm,-,N/A,,Clear,0,2013-01-13 09:25:00
2:45 AM,-27.4,-9999,N/A,29.94,10.0,Calm,Calm,-,N/A,,Clear,0,2013-01-13 09:45:00
3:05 AM,-29.2,-9999,N/A,29.94,10.0,Calm,Calm,-,N/A,,Clear,0,2013-01-13 10:05:00
3:25 AM,-31.0,-9999,N/A,29.94,10.0,Calm,Calm,-,N/A,,Clear,0,2013-01-13 10:25:00
3:45 AM,-31.0,-9999,N/A,29.94,10.0,Calm,Calm,-,N/A,,Clear,0,2013-01-13 10:45:00
4:05 AM,-31.0,-9999,N/A,29.94,10.0,Calm,Calm,-,N/A,,Clear,0,2013-01-13 11:05:00
4:25 AM,-31.0,-9999,N/A,29.94,10.0,South,3.5,-,N/A,,Mostly Cloudy,180,2013-01-13 11:25:00
5:05 AM,-34.6,-9999,N/A,29.93,10.0,Calm,Calm,-,N/A,,Clear,0,2013-01-13 12:05:00
5:25 AM,-34.6,-9999,N/A,29.94,10.0,Calm,Calm,-,N/A,,Clear,0,2013-01-13 12:25:00
5:45 AM,-34.6,-9999,N/A,29.95,10.0,Calm,Calm,-,N/A,,Clear,0,2013-01-13 12:45:00
6:05 AM,-36.4,-9999,N/A,29.95,10.0,Calm,Calm,-,N/A,,Clear,0,2013-01-13 13:05:00
6:25 AM,-36.4,-9999,N/A,29.96,10.0,Calm,Calm,-,N/A,,Clear,0,2013-01-13 13:25:00
6:45 AM,-36.4,-9999,N/A,29.97,10.0,Calm,Calm,-,N/A,,Clear,0,2013-01-13 13:45:00
7:05 AM,-36.4,-9999,N/A,29.97,10.0,Calm,Calm,-,N/A,,Clear,0,2013-01-13 14:05:00
7:25 AM,-38.2,-9999,N/A,29.98,10.0,Calm,Calm,-,N/A,,Clear,0,2013-01-13 14:25:00
7:45 AM,-38.2,-9999,N/A,29.98,10.0,Calm,Calm,-,N/A,,Clear,0,2013-01-13 14:45:00
8:05 AM,-38.2,-9999,N/A,29.99,10.0,Calm,Calm,-,N/A,,Clear,0,2013-01-13 15:05:00
8:25 AM,-38.2,-9999,N/A,30.00,10.0,Calm,Calm,-,N/A,,Clear,0,2013-01-13 15:25:00
8:45 AM,-36.4,-9999,N/A,30.00,10.0,Calm,Calm,-,N/A,,Clear,0,2013-01-13 15:45:00
9:05 AM,-34.6,-9999,N/A,30.00,10.0,Calm,Calm,-,N/A,,Clear,0,2013-01-13 16:05:00
9:25 AM,-27.4,-9999,N/A,30.00,10.0,Calm,Calm,-,N/A,,Scattered Clouds,0,2013-01-13 16:25:00
9:45 AM,-25.6,-9999,N/A,30.00,10.0,Calm,Calm,-,N/A,,Mostly Cloudy,0,2013-01-13 16:45:00
10:05 AM,-22.0,-9999,N/A,30.00,10.0,Calm,Calm,-,N/A,,Clear,0,2013-01-13 17:05:00
10:25 AM,-16.6,-9999,N/A,30.00,10.0,Calm,Calm,-,N/A,,Clear,0,2013-01-13 17:25:00
10:45 AM,-13.0,-9999,N/A,30.00,10.0,Calm,Calm,-,N/A,,Clear,0,2013-01-13 17:45:00
11:05 AM,-11.2,-9999,N/A,29.99,10.0,Calm,Calm,-,N/A,,Clear,0,2013-01-13 18:05:00
11:25 AM,-9.4,-9999,N/A,29.98,10.0,Calm,Calm,-,N/A,,Clear,0,2013-01-13 18:25:00
11:45 AM,-7.6,-9999,N/A,29.97,10.0,Calm,Calm,-,N/A,,Clear,0,2013-01-13 18:45:00
12:05 PM,-5.8,-9999,N/A,29.97,10.0,Calm,Calm,-,N/A,,Clear,0,2013-01-13 19:05:00
12:25 PM,-5.8,-9999,N/A,29.96,10.0,Calm,Calm,-,N/A,,Clear,0,2013-01-13 19:25:00
12:45 PM,-2.2,-9999,N/A,29.95,10.0,Calm,Calm,-,N/A,,Clear,0,2013-01-13 19:45:00
1:05 PM,-2.2,-9999,N/A,29.94,10.0,Calm,Calm,-,N/A,,Clear,0,2013-01-13 20:05:00
1:25 PM,-0.4,-9999,N/A,29.94,10.0,Calm,Calm,-,N/A,,Clear,0,2013-01-13 20:25:00
1:45 PM,-0.4,-9999,N/A,29.94,10.0,Calm,Calm,-,N/A,,Clear,0,2013-01-13 20:45:00
2:05 PM,1.4,-9999,N/A,29.95,10.0,NE,4.6,-,N/A,,Clear,40,2013-01-13 21:05:00
2:25 PM,1.4,-9999,N/A,29.95,10.0,Calm,Calm,-,N/A,,Partly Cloudy,0,2013-01-13 21:25:00
2:45 PM,1.4,-9999,N/A,29.96,10.0,Calm,Calm,-,N/A,,Mostly Cloudy,0,2013-01-13 21:45:00
3:05 PM,1.4,-9999,N/A,29.96,10.0,Calm,Calm,-,N/A,,Overcast,0,2013-01-13 22:05:00
3:25 PM,1.4,-9999,N/A,29.96,10.0,NE,3.5,-,N/A,,Overcast,50,2013-01-13 22:25:00
3:45 PM,1.4,-9999,N/A,29.96,10.0,Calm,Calm,-,N/A,,Overcast,0,2013-01-13 22:45:00
4:05 PM,3.2,-9999,N/A,29.97,10.0,NNW,3.5,-,N/A,,Overcast,330,2013-01-13 23:05:00
4:25 PM,1.4,-9999,N/A,29.96,10.0,Calm,Calm,-,N/A,Snow,Light Snow,0,2013-01-13 23:25:00
4:45 PM,1.4,-9999,N/A,29.96,10.0,Calm,Calm,-,N/A,,Overcast,0,2013-01-13 23:45:00
5:05 PM,-0.4,-9999,N/A,29.97,10.0,NNE,3.5,-,N/A,,Overcast,30,2013-01-14 00:05:00
5:25 PM,-0.4,-9999,N/A,29.97,10.0,NNE,3.5,-,N/A,Snow,Light Snow,20,2013-01-14 00:25:00
5:45 PM,-0.4,-9999,N/A,29.97,10.0,Calm,Calm,-,N/A,,Overcast,0,2013-01-14 00:45:00
6:05 PM,-2.2,-9999,N/A,29.98,10.0,Calm,Calm,-,N/A,,Overcast,0,2013-01-14 01:05:00
6:25 PM,-4.0,-9999,N/A,29.98,10.0,Calm,Calm,-,N/A,,Overcast,0,2013-01-14 01:25:00
6:45 PM,-4.0,-9999,N/A,29.99,10.0,SSW,5.8,-,N/A,,Overcast,210,2013-01-14 01:45:00
7:05 PM,-2.2,-9999,N/A,29.99,10.0,SW,3.5,-,N/A,,Overcast,220,2013-01-14 02:05:00
7:25 PM,-2.2,-9999,N/A,29.98,10.0,SSW,4.6,-,N/A,,Overcast,210,2013-01-14 02:25:00
7:45 PM,-4.0,-9999,N/A,29.98,10.0,Calm,Calm,-,N/A,,Overcast,0,2013-01-14 02:45:00
8:05 PM,-4.0,-9999,N/A,29.98,10.0,Calm,Calm,-,N/A,,Overcast,0,2013-01-14 03:05:00
8:25 PM,-7.6,-9999,N/A,29.99,10.0,Calm,Calm,-,N/A,,Overcast,0,2013-01-14 03:25:00
8:45 PM,-7.6,-9999,N/A,29.99,10.0,Calm,Calm,-,N/A,,Overcast,0,2013-01-14 03:45:00
9:05 PM,-7.6,-9999,N/A,29.99,10.0,Calm,Calm,-,N/A,,Overcast,0,2013-01-14 04:05:00
9:25 PM,-7.6,-9999,N/A,30.00,10.0,Calm,Calm,-,N/A,,Overcast,0,2013-01-14 04:25:00
9:45 PM,-9.4,-9999,N/A,29.99,10.0,Calm,Calm,-,N/A,,Overcast,0,2013-01-14 04:45:00
10:25 PM,-7.6,-9999,N/A,29.99,10.0,SSW,4.6,-,N/A,,Mostly Cloudy,210,2013-01-14 05:25:00
10:45 PM,-7.6,-9999,N/A,29.99,10.0,Calm,Calm,-,N/A,,Overcast,0,2013-01-14 05:45:00
11:05 PM,-9.4,-9999,N/A,30.00,10.0,Calm,Calm,-,N/A,,Overcast,0,2013-01-14 06:05:00
11:25 PM,-7.6,-9999,N/A,30.00,10.0,SSW,4.6,-,N/A,,Overcast,200,2013-01-14 06:25:00
11:45 PM,-7.6,-9999,N/A,30.00,10.0,WSW,5.8,-,N/A,,Overcast,240,2013-01-14 06:45:00